Find Starlink 30830

NORAD ID: 58194 Int'l Des: 2023-167 Owner: SPXS Country: US Constellation: starlink operational
LEOCIRCULAR

Current View

Loading 3D Globe...

About Starlink 30830

Starlink 30830 (NORAD 58194) is a starlink constellation satellite (v2 mini) launched Oct 30, 2023 by SPXS of US. It operates in LEO, CIRCULAR orbit with a mass of 730.00 kg.

Upcoming Passes

Passes for default location (London). Set your location on the main map for personalized predictions.

Altitude History

Loading altitude history...

Two-Line Element Set

1 58194U 23167V 26224.60113575 .00003723 00000-0 14478-3 0 9992
2 58194 43.0042 342.5398 0001837 276.9432 83.1210 15.27572701154831
Epoch: Aug 12, 2026 • Age: 21 hours

Current Status

Altitude 485.6 km
Apogee / Perigee N/A
Velocity 7.62 km/s
Sub-Earth Point -14.20°S, 35.71°E
Launch Date Oct 30, 2023
Age 2.7 years
Type internet

Technical Details

Classification Payload
Mass 730.00 kg
Dry Mass 700.00 kg
Total Mass 730.00 kg
Length 0.30 m
Diameter 4.10 m
Span 29.00 m
Shape Box + pan
Manufacturer SPXS
Bus Type Starlink V2M
Phase Status In Orbit
Owner/State SPXS/US

Most Searched